This is the latest recevied weather packets stored in our database for station/object OE-11213. If no packets are shown the sender has not sent any weather packets the latest 10 day(s).
| Time | Temp. | Humidity | Pressure | Rain* | Wind** | Luminosity | Snow |
|---|---|---|---|---|---|---|---|
| 1787910103 | 23.89° C | 71% | 1014.1 hPa | 0 mm | - | 689 W/m² | - |
| 1787909730 | 23.89° C | 74% | 1014.2 hPa | 0 mm | - | 580 W/m² | - |
| 1787909130 | 23.33° C | 76% | 1014.6 hPa | 0 mm | - | 334 W/m² | - |
| 1787908302 | 22.78° C | 77% | 1015.1 hPa | 0 mm | - | 283 W/m² | - |
| 1787907930 | 22.78° C | 75% | 1014.8 hPa | 0 mm | - | 261 W/m² | - |
| 1787907330 | 22.78° C | 74% | 1014.9 hPa | 0 mm | - | 428 W/m² | - |
| 1787906502 | 22.78° C | 75% | 1015.2 hPa | 0 mm | - | 580 W/m² | - |
| 1787906127 | 22.22° C | 77% | 1015.4 hPa | 0 mm | - | 508 W/m² | - |
| 1787904703 | 21.67° C | 82% | 1015.5 hPa | 0 mm | - | 145 W/m² | - |
| 1787904330 | 21.67° C | 78% | 1015.4 hPa | 0 mm | - | 167 W/m² | - |
| 1787903730 | 21.67° C | 84% | 1015.5 hPa | 0 mm | - | 174 W/m² | - |
| 1787902902 | 21.11° C | 83% | 1015.4 hPa | 0 mm | - | 196 W/m² | - |
| 1787902530 | 21.11° C | 85% | 1015.5 hPa | 0 mm | - | 174 W/m² | - |
| 1787901930 | 21.11° C | 85% | 1015.6 hPa | 0 mm | - | 167 W/m² | - |
| 1787901102 | 20.56° C | 86% | 1015.6 hPa | 0 mm | - | 167 W/m² | - |
| 1787900729 | 20.56° C | 86% | 1015.6 hPa | 0 mm | - | 174 W/m² | - |
| 1787900130 | 20.56° C | 87% | 1015.8 hPa | 0 mm | - | 167 W/m² | - |
| 1787899302 | 20° C | 88% | 1016 hPa | 0 mm | - | 160 W/m² | - |
| 1787898930 | 20° C | 88% | 1016.2 hPa | 0 mm | - | 181 W/m² | - |
| 1787898330 | 19.44° C | 90% | 1016.2 hPa | 0 mm | - | 189 W/m² | - |
| 1787897502 | 20° C | 90% | 1016 hPa | 0 mm | - | 181 W/m² | - |
| 1787897129 | 19.44° C | 91% | 1015.8 hPa | 0 mm | - | 145 W/m² | - |
| 1787896529 | 18.89° C | 93% | 1016 hPa | 0 mm | - | 123 W/m² | - |
| 1787895702 | 18.33° C | 94% | 1016.1 hPa | 0 mm | - | 87 W/m² | - |
| 1787895330 | 18.33° C | 94% | 1016.1 hPa | 0 mm | - | 73 W/m² | - |
* Rain latest hour (hover to see other rain measurements)
** Current wind speed in m/s (hover to see current wind gust speed)